Regional Weather Roundup
Issued by NWS

Home | Current Version | Previous Version | Graphics & Text | Print | Product List | Glossary On
Versions: 1 2 3 4 5 6 7 8 9 10 11 12 13 14 15 16 17 18 19 20 21 22 23 24 25 26 27 28 29 30 31 32 33 34 35 36 37 38 39 40 41 42 43 44 45 46 47 48 49 50
000
ASUS43 KIND 170809
RWRIN

WEATHER ROUNDUP FOR INDIANA
NATIONAL WEATHER SERVICE INDIANAPOLIS IN
300 AM EST FRI NOV 17 2017

NOTE: "FAIR" INDICATES FEW OR NO CLOUDS BELOW 12,000 FEET WITH NO
SIGNIFICANT WEATHER AND/OR OBSTRUCTIONS TO VISIBILITY.

* - STATION DOES NOT REPORT WEATHER SUCH AS PRECIPITATION OR FOG.

+ - STATION NOT QUALITY CONTROLLED BY THE NATIONAL WEATHER SERVICE.
    USE DATA WITH CAUTION...ESPECIALLY DEWPOINT AND RELATIVE
    HUMIDITY OBSERVATIONS.

INZ001>003-010>013-019-020-170900-
NORTHWEST INDIANA

CITY           SKY/WX    TMP DP  RH WIND       PRES   REMARKS
GARY /AIRPORT/ CLOUDY    38  31  75 SE6       30.22R WCI  34
KNOX *+        CLOUDY    36  30  80 SE12      30.21S WCI  27
LA PORTE +     CLOUDY    35  30  83 S8        30.21F WCI  28
MICHIGAN CITY+ CLOUDY    36  30  80 S3        30.22F
MONTICELLO +   CLOUDY    36  31  85 SE3       30.22R
RENSSELAER +   CLOUDY    36  30  80 SE6       30.21S WCI  31
VALPARAISO     CLOUDY    37  30  75 SE9       30.22S WCI  30

$$

LMZ046-743>745-170900-
SOUTHERN LAKE MICHIGAN

STATION/POSITION TIME  TEMP    WIND        PRES    WAVE
                       AIR SEA DIR/SP/G            HT
                 (UTC) (F)     (DEG/KT/KT) (MB)    (FT)
BURNS HARBOR     0740   36      CALM  / 12 1023.4S
MICHIGAN CITY    0740   36     140/  7/ 10   N/A

$$

INZ004-005-014>016-021>024-170900-
NORTH CENTRAL INDIANA

CITY           SKY/WX    TMP DP  RH WIND       PRES   REMARKS
GOSHEN         CLOUDY    36  28  73 S3        30.23R
LOGANSPORT +   CLOUDY    34  32  93 SE7       30.23R WCI  28
PERU/GRISSOM   CLOUDY    36  32  85 SE7       30.22S WCI  30
ROCHESTER +    CLOUDY    37  32  81 SE8       30.24R WCI  31
SOUTH BEND     CLOUDY    35  31  85 S10       30.21F WCI  27
WARSAW +       CLOUDY    34  30  86 S3        30.23R

$$

INZ006>009-017-018-025>027-170900-
NORTHEAST INDIANA

CITY           SKY/WX    TMP DP  RH WIND       PRES   REMARKS
AUBURN +       CLOUDY    36  28  75 CALM      30.23S
FORT WAYNE     CLOUDY    37  30  75 SE8       30.23F WCI  31
HUNTINGTON +   CLOUDY    36  29  78 SE6       30.22F WCI  31
KENDALLVILLE + CLOUDY    35  30  81 S7        30.23R WCI  29

$$

INZ028-029-035-036-043>045-051>053-170900-
WEST CENTRAL INDIANA

CITY           SKY/WX    TMP DP  RH WIND       PRES   REMARKS
CRAWFORDSVL +  CLOUDY    28  28 100 SE3       30.18R
GREENCASTLE +  CLOUDY    30  28  93 SE7       30.20F WCI  23
LAFAYETTE      PTCLDY    33  30  88 SE5       30.22R WCI  29
TERRE HAUTE    CLOUDY    30  26  85 E7        30.20F WCI  23

$$

INZ030>032-037>040-046>048-054>057-064-065-170900-
CENTRAL INDIANA

CITY           SKY/WX    TMP DP  RH WIND       PRES   REMARKS
CP ATTERBURY + CLOUDY    27  27 100 CALM      30.24S
FISHERS *+     CLOUDY    34  32  93 SE5       30.21F WCI  30
FRANKFORT +    CLOUDY    36  33  86 SE6       30.23R WCI  32
GREENWOOD *+   CLOUDY    38  32  78 SE7       30.21F WCI  33
INDIANAPOLIS   CLOUDY    35  29  78 E12       30.21F WCI  27
-EAGLE CREEK   CLOUDY    36  28  73 SE9       30.20F WCI  29
KOKOMO +       CLOUDY    36  31  82 SE7       30.23S WCI  30
MARION +       CLOUDY    35  31  84 SE8       30.23R WCI  29
MT COMFORT *+  CLOUDY    34  32  93 SE9       30.22F WCI  26
SHELBYVILLE    CLOUDY    36  29  75 SE9       30.23R WCI  29
ZIONSVILLE +   CLOUDY    34  30  86 SE6       30.21F WCI  29

$$

INZ033-034-041-042-049-050-058-059-170900-
EAST CENTRAL INDIANA

CITY           SKY/WX    TMP DP  RH WIND       PRES   REMARKS
MUNCIE         CLOUDY    37  29  72 SE8       30.22S WCI  31
RICHMOND +     CLOUDY    34  32  93 SE8       30.23F WCI  27

$$

INZ060-061-067>069-081>083-085>088-170900-
SOUTHWEST INDIANA

CITY           SKY/WX    TMP DP  RH WIND       PRES   REMARKS
EVANSVILLE     PTCLDY    30  28  92 CALM      30.21F
HUNTINGBURG +  CLOUDY    29  28  96 E5        30.20F WCI  24
WASHINGTON +   CLEAR     29  28  94 CALM      30.22R

$$

INZ062-063-066-070>080-084-089>092-170900-
SOUTH CENTRAL AND SOUTHEAST INDIANA

CITY           SKY/WX    TMP DP  RH WIND       PRES   REMARKS
BEDFORD +      CLEAR     30  27  86 E6        30.21F WCI  24
BLOOMINGTON    CLOUDY    30  26  85 SE7       30.21S WCI  23
MADISON *+     CLOUDY    34  30  86 E7        30.25S WCI  28
NORTH VERNON + PTCLDY    32  28  86 CALM      30.24F
SEYMOUR +      PTCLDY    27  25  93 CALM      30.24S

$$




USA.gov is the U.S. government's official web portal to all federal, state and local government web resources and services.